Cook, MN

7:36 AM CDT on August 30, 2016 (GMT -0500)
Cook Municipal

Weather History for KCQM - February, 2014

Change the Weather History Date:

Thursday, February 27, 2014

  Actual Average Record
Temperature  
Mean Temperature -18 °F -  
Max Temperature -5 °F 25 °F 48 °F (2004)
Min Temperature -31 °F 6 °F -31 °F (2014)
Degree Days  
Heating Degree Days 83    
Moisture  
Dew Point -29 °F    
Average Humidity 58    
Maximum Humidity 76    
Minimum Humidity 38    
Precipitation  
Precipitation 0.00 in - - ()
Sea Level Pressure  
Sea Level Pressure 30.00 in    
Wind  
Wind Speed 4 mph (West)    
Max Wind Speed 10 mph    
Max Gust Speed -    
Visibility 10 miles    
Events      
Averages and records for this station are not official NWS values.
T = Trace of Precipitation, MM = Missing Value Source: NWS Daily Summary

Daily Weather History Graph

Daily Weather History Graph

Search for Another Location

Airport or City:

Trip Planner

Search our weather history database for the weather conditions in past years. The results will help you decide how hot, cold, wet, or windy it might be!

Date:

Astronomy

Feb. 27, 2014 Rise Set
Actual Time 6:55 AM CST 5:52 PM CST
Civil Twilight 6:24 AM CST 6:23 PM CST
Nautical Twilight 5:48 AM CST 6:59 PM CST
Astronomical Twilight 5:12 AM CST 7:35 PM CST
Moon 5:33 AM CST (2/27) 4:14 PM CST (2/27)
Length of Visible Light 11h 59m
Length of Day
10h 57m
Waning Crescent, 4% of the Moon is Illuminated
Feb 27
Waning Crescent
Mar 1
New
Mar 8
First Quarter
Mar 16
Full
Mar 23
Last Quarter

Hourly Weather History & Observations

Time (CST) Temp. Windchill Dew Point Humidity Pressure Visibility Wind Dir Wind Speed Gust Speed Precip Events Conditions
12:14 AM -14.8 °F -34.6 °F -23.8 °F 64% 29.85 in 10.0 mi NW 10.4 mph - N/A   Clear
12:35 AM -14.8 °F -32.2 °F -23.8 °F 64% 29.87 in 10.0 mi NW 8.1 mph - N/A   Scattered Clouds
12:55 AM -14.8 °F -30.8 °F -23.8 °F 64% 29.88 in 10.0 mi NW 6.9 mph - N/A   Scattered Clouds
1:14 AM -16.6 °F -32.9 °F -25.6 °F 64% 29.89 in 10.0 mi NW 6.9 mph - N/A   Clear
1:35 AM -16.6 °F -35.7 °F -25.6 °F 64% 29.91 in 10.0 mi NW 9.2 mph - N/A   Clear
1:55 AM -16.6 °F -26.8 °F -27.4 °F 58% 29.92 in 10.0 mi NNW 3.5 mph - N/A   Clear
2:14 AM -18.4 °F - -27.4 °F 63% 29.92 in 10.0 mi Calm Calm - N/A   Clear
2:35 AM -18.4 °F - -27.4 °F 63% 29.93 in 10.0 mi Calm Calm - N/A   Clear
2:55 AM -20.2 °F - -27.4 °F 69% 29.94 in 10.0 mi Calm Calm - N/A   Clear
3:14 AM -20.2 °F - -27.4 °F 69% 29.94 in 10.0 mi Calm Calm - N/A   Clear
3:35 AM -23.8 °F - -29.2 °F 76% 29.96 in 10.0 mi Calm Calm - N/A   Clear
3:55 AM -25.6 °F - -31.0 °F 76% 29.97 in 10.0 mi Calm Calm - N/A   Clear
4:14 AM -23.8 °F - -29.2 °F 76% 29.97 in 10.0 mi Calm Calm - N/A   Clear
4:35 AM -23.8 °F -35.0 °F -29.2 °F 76% 29.98 in 10.0 mi WNW 3.5 mph - N/A   Clear
4:55 AM -25.6 °F -37.1 °F -32.8 °F 69% 30.00 in 10.0 mi WNW 3.5 mph - N/A   Clear
5:14 AM -25.6 °F -37.1 °F -32.8 °F 69% 30.01 in 10.0 mi WNW 3.5 mph - N/A   Clear
5:35 AM -27.4 °F -41.9 °F -32.8 °F 75% 30.02 in 10.0 mi West 4.6 mph - N/A   Clear
5:55 AM -27.4 °F -39.2 °F -34.6 °F 69% 30.02 in 10.0 mi WNW 3.5 mph - N/A   Clear
6:14 AM -27.4 °F -41.9 °F -34.6 °F 69% 30.03 in 10.0 mi WNW 4.6 mph - N/A   Clear
6:35 AM -27.4 °F - -34.6 °F 69% 30.03 in 10.0 mi Calm Calm - N/A   Clear
6:54 AM -29.2 °F -41.2 °F -34.6 °F 75% 30.03 in 10.0 mi WNW 3.5 mph - N/A   Clear
7:15 AM -31.0 °F - -36.4 °F 75% 30.03 in 10.0 mi Calm Calm - N/A   Clear
7:35 AM -29.2 °F - -36.4 °F 68% 30.03 in 10.0 mi Calm Calm - N/A   Clear
7:55 AM -29.2 °F -41.2 °F -34.6 °F 75% 30.04 in 10.0 mi WNW 3.5 mph - N/A   Clear
8:15 AM -25.6 °F -39.8 °F -32.8 °F 69% 30.05 in 10.0 mi West 4.6 mph - N/A   Clear
8:35 AM -25.6 °F -41.9 °F -32.8 °F 69% 30.06 in 10.0 mi West 5.8 mph - N/A   Clear
8:55 AM -23.8 °F -37.7 °F -31.0 °F 69% 30.07 in 10.0 mi West 4.6 mph - N/A   Clear
9:15 AM -22.0 °F -37.7 °F -31.0 °F 63% 30.07 in 10.0 mi WNW 5.8 mph - N/A   Clear
9:35 AM -20.2 °F -35.5 °F -29.2 °F 63% 30.07 in 10.0 mi West 5.8 mph - N/A   Clear
9:55 AM -18.4 °F -31.4 °F -29.2 °F 58% 30.06 in 10.0 mi WNW 4.6 mph - N/A   Clear
10:15 AM -18.4 °F -33.4 °F -29.2 °F 58% 30.07 in 10.0 mi West 5.8 mph - N/A   Clear
10:35 AM -16.6 °F -31.3 °F -29.2 °F 53% 30.07 in 10.0 mi West 5.8 mph - N/A   Clear
10:55 AM -16.6 °F -29.3 °F -29.2 °F 53% 30.07 in 10.0 mi West 4.6 mph - N/A   Clear
11:15 AM -14.8 °F -29.1 °F -29.2 °F 48% 30.08 in 10.0 mi West 5.8 mph - N/A   Clear
11:35 AM -14.8 °F -32.2 °F -29.2 °F 48% 30.07 in 10.0 mi WSW 8.1 mph - N/A   Clear
11:54 AM -13.0 °F -28.6 °F -29.2 °F 44% 30.07 in 10.0 mi WSW 6.9 mph - N/A   Clear
12:15 PM -11.2 °F -26.4 °F -27.4 °F 45% 30.06 in 10.0 mi West 6.9 mph - N/A   Clear
12:35 PM -11.2 °F -23.0 °F -27.4 °F 45% 30.05 in 10.0 mi West 4.6 mph - N/A   Clear
12:55 PM -9.4 °F -18.6 °F -27.4 °F 41% 30.05 in 7.0 mi West 3.5 mph - N/A   Clear
1:15 PM -9.4 °F - -27.4 °F 41% 30.04 in 10.0 mi Calm Calm - N/A   Clear
1:35 PM -7.6 °F -20.6 °F -25.6 °F 41% 30.03 in 10.0 mi West 5.8 mph - N/A   Clear
1:55 PM -7.6 °F -22.1 °F -25.6 °F 41% 30.03 in 10.0 mi West 6.9 mph - N/A   Clear
2:15 PM -7.6 °F -20.6 °F -23.8 °F 45% 30.03 in 10.0 mi West 5.8 mph - N/A   Clear
2:34 PM -5.8 °F - -25.6 °F 38% 30.03 in 10.0 mi Calm Calm - N/A   Clear
2:55 PM -5.8 °F -19.9 °F -23.8 °F 42% 30.03 in 10.0 mi West 6.9 mph - N/A   Clear
3:15 PM -5.8 °F -16.7 °F -23.8 °F 42% 30.02 in 10.0 mi WSW 4.6 mph - N/A   Clear
3:34 PM -5.8 °F -14.5 °F -23.8 °F 42% 30.02 in 10.0 mi West 3.5 mph - N/A   Clear
3:55 PM -5.8 °F -14.5 °F -25.6 °F 38% 30.01 in 10.0 mi West 3.5 mph - N/A   Clear
4:14 PM -5.8 °F -19.9 °F -23.8 °F 42% 30.01 in 10.0 mi West 6.9 mph - N/A   Clear
4:35 PM -5.8 °F -16.7 °F -23.8 °F 42% 30.01 in 10.0 mi West 4.6 mph - N/A   Clear
4:55 PM -5.8 °F -16.7 °F -23.8 °F 42% 30.00 in 10.0 mi WNW 4.6 mph - N/A   Clear
5:14 PM -7.6 °F -16.5 °F -23.8 °F 45% 30.00 in 10.0 mi West 3.5 mph - N/A   Clear
5:35 PM -7.6 °F - -25.6 °F 41% 30.00 in 10.0 mi Calm Calm - N/A   Clear
5:55 PM -9.4 °F - -25.6 °F 45% 30.00 in 10.0 mi Calm Calm - N/A   Clear
6:14 PM -11.2 °F - -25.6 °F 49% 30.00 in 10.0 mi Calm Calm - N/A   Clear
6:35 PM -13.0 °F - -25.6 °F 53% 30.00 in 10.0 mi Calm Calm - N/A   Clear
6:55 PM -16.6 °F - -27.4 °F 58% 30.00 in 10.0 mi Calm Calm - N/A   Clear
7:13 PM -18.4 °F - -29.2 °F 58% 29.99 in 10.0 mi Calm Calm - N/A   Clear
7:35 PM -20.2 °F - -29.2 °F 63% 29.99 in 10.0 mi Calm Calm - N/A   Clear
7:55 PM -20.2 °F - -29.2 °F 63% 29.98 in 10.0 mi Calm Calm - N/A   Clear
8:14 PM -22.0 °F - -31.0 °F 63% 29.98 in 10.0 mi Calm Calm - N/A   Clear
8:35 PM -23.8 °F - -32.8 °F 63% 29.98 in 10.0 mi Calm Calm - N/A   Clear
8:55 PM -23.8 °F - -32.8 °F 63% 29.98 in 10.0 mi Calm Calm - N/A   Clear
9:15 PM -23.8 °F - -32.8 °F 63% 29.98 in 10.0 mi Calm Calm - N/A   Clear
9:35 PM -23.8 °F - -34.6 °F 57% 29.98 in 10.0 mi Calm Calm - N/A   Clear
9:55 PM -25.6 °F - -34.6 °F 63% 29.97 in 10.0 mi Calm Calm - N/A   Clear
10:15 PM -25.6 °F - -34.6 °F 63% 29.98 in 10.0 mi Calm Calm - N/A   Clear
10:35 PM -25.6 °F - -34.6 °F 63% 29.98 in 10.0 mi Calm Calm - N/A   Clear
10:55 PM -25.6 °F - -34.6 °F 63% 29.98 in 10.0 mi Calm Calm - N/A   Clear
11:15 PM -25.6 °F - -34.6 °F 63% 29.97 in 10.0 mi Calm Calm - N/A   Clear
11:35 PM -25.6 °F - -34.6 °F 63% 29.97 in 10.0 mi Calm Calm - N/A   Clear
11:55 PM -25.6 °F - -34.6 °F 63% 29.96 in 10.0 mi Calm Calm - N/A   Clear